sat.trackr.live / text

‹ back to catalog

STARLINK-5001

NORAD 53924 · 2022-119AQ

PAYLOAD ACTIVE UNKNOWN

§ Identity

Operator
Country
US
Launch date
2022-09-24
Launch site
AFETR
Launch vehicle
Mass (kg)
RCS (m²)

Purposes: comms

External: N2YO · Heavens-Above · Gunter

§ Orbital elements

Epoch: 2026-05-25T04:00:03.998880Z

Period
94.40 min
Inclination
53.2161°
Eccentricity
0.0001603
Mean motion
15.25352790 rev/d
Perigee alt
488.6 km
Apogee alt
490.8 km
Semi-major
6,867.9 km
B*
6.6048e-4
RAAN
323.7992°
Arg perigee
83.4942°
Mean anomaly
120.2617°
Rev number
584

§ Raw data

STARLINK-50011 53924U 22119AQ  26145.16671295  .00016571  00000+0  66048-3 0  99992 53924  53.2161 323.7992 0001603  83.4942 120.2617 15.25352790  5843

JSON: /api/v1/satellites/53924 · /tle

For live sub-satellite position, see the globe view (requires WebGL).

§ Visibility from observer

Set your observer location to see the next 7 days of passes ≥ 10°. The values pass through the URL so the page stays shareable.

No JS? Fill the form by hand. The geolocation button needs JavaScript.